Volver al catálogo

STARLINK-4431

ActivoComunicacionesSSO
NORAD 53486·PAYLOAD·🇺🇸 United States

Lanzado Aug 12, 2022 desde Vandenberg Space Force Base

Loading…

Próximos Pases (próximas 24 horas)

TLE

ActualizadoSource: CelesTrak SupGP

Época: Sep 15, 2026, 01:38 UTC

1 53486C 22099X   26258.06854167 -.00039488  00000+0 -10960-2 0  2587
2 53486  97.5051  25.7981 0000605  84.5425 135.4716 15.36980486    14

Sigue STARLINK-4431 en tiempo real con AllMySat

Download on the App Store